Regional Weather Roundup
Issued by NWS

Home | Current Version | Previous Version | Text Only | Print | Product List | Glossary Off
Versions: 1 2 3 4 5 6 7 8 9 10 11 12 13 14 15 16 17 18 19 20 21 22 23 24 25 26 27 28 29 30 31 32 33 34 35 36 37 38 39 40 41 42 43 44 45 46 47 48 49 50

000
ASUS45 KPSR 301810
RWRAZ

ARIZONA REGIONAL HOURLY WEATHER ROUNDUP
NATIONAL WEATHER SERVICE PHOENIX AZ
1100 AM MST WED JUL 30 2014

NOTE: FAIR INDICATES FEW OR NO CLOUDS BELOW 12,000 FEET WITH NO
SIGNIFICANT WEATHER AND/OR OBSTRUCTIONS TO VISIBILITY.

AZZ001>003-036-301900-
NORTHWEST ARIZONA

CITY           SKY/WX    TMP DP  RH WIND       PRES   REMARKS
BULLHEAD CITY  SUNNY    102  55  21 N15       29.86F HX 101
KINGMAN        SUNNY     92  48  22 VRB6      30.08S
6HR MIN TEMP:  70; 6HR MAX TEMP:  93;

$$

AZZ004>008-015-016-018-301900-
NORTH CENTRAL ARIZONA

CITY           SKY/WX    TMP DP  RH WIND       PRES   REMARKS
GRAND CANYON   MOSUNNY   77  46  33 NW8       30.32S
6HR MIN TEMP:  50; 6HR MAX TEMP:  79;

WILLIAMS       MOSUNNY   77  48  36 S3        30.39F
PRESCOTT       MOSUNNY   88  46  23 S9G16     30.21S
6HR MIN TEMP:  64; 6HR MAX TEMP:  88;

FLAGSTAFF      PTSUNNY   77  44  30 VRB3      30.35F
6HR MIN TEMP:  51; 6HR MAX TEMP:  77;

PAYSON         PTSUNNY   88  50  27 VRB7G20   30.24S
PAGE           SUNNY     87  52  29 VRB3      30.14F
6HR MIN TEMP:  73; 6HR MAX TEMP:  88;

$$

AZZ009>014-017-301900-
NORTHEAST ARIZONA

CITY           SKY/WX    TMP DP  RH WIND       PRES   REMARKS
WINSLOW        MOSUNNY   87  49  26 MISG      30.18F
6HR MIN TEMP:  67; 6HR MAX TEMP:  90;

SAINT JOHNS    SUNNY     85  47  26 SW10G17   30.23F
6HR MIN TEMP:  65; 6HR MAX TEMP:  86;

WINDOW ROCK    MOSUNNY   85  43  22 W9        30.31S
6HR MIN TEMP:  55; 6HR MAX TEMP:  85;

SHOW LOW       MOSUNNY   81  45  28 W9G18     30.33F
$$

AZZ023-301900-
GREATER PHOENIX AREA

CITY           SKY/WX    TMP DP  RH WIND       PRES   REMARKS
PHOENIX        MOSUNNY  104  54  19 VRB3      29.89S HX 102
6HR MIN TEMP:  92; 6HR MAX TEMP: 104;

BUCKEYE          N/A    100  55  22 SE5       29.90S
GLENDALE       MOSUNNY  102  55  21 MISG      29.91S HX 101
LUKE AFB       NOT AVBL
6HR MIN TEMP:  85; 6HR MAX TEMP: 101;

DEER VALLEY    SUNNY     99  53  21 VRB5      29.91S
6HR MIN TEMP:  83; 6HR MAX TEMP:  99;

SCOTTSDALE     SUNNY    101  56  22 VRB3      29.94S HX 100
6HR MIN TEMP:  88; 6HR MAX TEMP: 101;

MESA-FALCON    MOSUNNY   99  55  23 SW6       29.92S
MESA-GATEWAY   MOSUNNY  100  55  22 S5        29.94S
CHANDLER       MOSUNNY  100  55  22 VRB6      29.92S
$$

AZZ027-028-301900-
SOUTHWEST MARICOPA COUNTY AND PINAL COUNTY

CITY           SKY/WX    TMP DP  RH WIND       PRES   REMARKS
CASA GRANDE    SUNNY    100  55  22 CALM      29.94S
6HR MIN TEMP:  81; 6HR MAX TEMP: 100;

GILA BEND      PTCLDY   106  52  16 NW5       29.90S HX 103
$$

AZZ503-504-507>509-301900-
SOUTHEAST ARIZONA

CITY           SKY/WX    TMP DP  RH WIND       PRES   REMARKS
TUCSON         MOSUNNY   97  53  22 W6        30.05S
6HR MIN TEMP:  80; 6HR MAX TEMP:  97;

DAVIS-MONTHAN  MOSUNNY   94  56  27 S7        30.03F
6HR MIN TEMP:  78; 6HR MAX TEMP:  94;

RYAN FIELD       N/A     99  52  20 CALM      30.03S
NOGALES        MOSUNNY   91  56  30 VRB6      30.13F
6HR MIN TEMP:  69; 6HR MAX TEMP:  92;

SIERRA VISTA   PTSUNNY   88  55  33 NE6       30.20F
DOUGLAS        CLOUDY    85  63  47 VRB3      30.16F
6HR MIN TEMP:  71; 6HR MAX TEMP:  85;

SAFFORD        SUNNY     94  54  25 CALM      30.04F
6HR MIN TEMP:  73; 6HR MAX TEMP:  94;

$$

AZZ020-021-025-026-031-301900-
SOUTHWEST ARIZONA

CITY           SKY/WX    TMP DP  RH WIND       PRES   REMARKS
YUMA           MOSUNNY  108  46  12 W6        29.83S HX 104
6HR MIN TEMP:  87; 6HR MAX TEMP: 109;

$$

CAZ031-033-041-043-047-048-061-301900-
SOUTHERN CALIFORNIA

CITY           SKY/WX    TMP DP  RH WIND       PRES   REMARKS
DOWNTOWN L.A.  SUNNY     85  61  44 CALM      29.94F
6HR MIN TEMP:  68; 6HR MAX TEMP:  85;

L.A. AIRPORT   MOSUNNY   81  62  52 CALM      29.96F
6HR MIN TEMP:  68; 6HR MAX TEMP:  81;

SAN DIEGO      MOSUNNY   78  65  63 VRB6      29.98S
6HR MIN TEMP:  71; 6HR MAX TEMP:  78;

BURBANK        SUNNY     84  58  40 VRB3      29.96F
6HR MIN TEMP:  71; 6HR MAX TEMP:  85;

ONTARIO        MOSUNNY   87  53  31 SW5       29.97F
6HR MIN TEMP:  70; 6HR MAX TEMP:  87;

RIVERSIDE      SUNNY     88  53  30 CALM      29.97S
6HR MIN TEMP:  69; 6HR MAX TEMP:  88;

PALM SPRINGS   SUNNY    106  46  13 CALM      29.86S HX 102
6HR MIN TEMP:  83; 6HR MAX TEMP: 106;

EL CENTRO NAS  SUNNY    107  45  12 CALM      29.81F HX 102
6HR MIN TEMP:  83; 6HR MAX TEMP: 107;

IMPERIAL       SUNNY    105  46  13 NW5       29.81F HX 101
6HR MIN TEMP:  81; 6HR MAX TEMP: 105;

BLYTHE           N/A    N/A N/A N/A MISG      29.84S
NEEDLES        SUNNY    104  54  19 VRB3      29.88S HX 102
6HR MIN TEMP:  86; 6HR MAX TEMP: 104;

$$

NVZ020-UTZ003-301900-
SOUTHERN NEVADA-UTAH

CITY           SKY/WX    TMP DP  RH WIND       PRES   REMARKS
LAS VEGAS      MOSUNNY   97  53  22 CALM      29.96S
6HR MIN TEMP:  83; 6HR MAX TEMP:  97;

SALT LAKE CITY PTSUNNY   69  60  73 N13       30.22R
6HR MIN TEMP:  66; 6HR MAX TEMP:  70; 6HR PCP: TRACE;

$$

NMZ009-TXZ055-301900-
NEW MEXICO-WEST TEXAS

CITY           SKY/WX    TMP DP  RH WIND       PRES   REMARKS
ALBUQUERQUE    MOSUNNY   78  57  48 VRB6      30.23S
6HR MIN TEMP:  66; 6HR MAX TEMP:  79;

EL PASO        MOSUNNY   93  57  29 VRB7      30.09F
6HR MIN TEMP:  71; 6HR MAX TEMP:  93;

$$


........................KEY........................
SKY/WX - SKY CONDITION/WEATHER
TMP    - TEMPERATURE IN FAHRENHEIT
DP     - DEW POINT IN FAHRENHEIT
RH     - RELATIVE HUMIDITY IN PERCENT
WIND   - DIRECTION AND SPEED IN MILES PER HOUR (MPH)
VRB    - VARIABLE WIND DIRECTION
PRES   - MEAN SEA LEVEL PRESSURE IN INCHES OF MERCURY
         F - FALLING PRESSURE   R - RISING PRESSURE
         S - STEADY PRESSURE
VSB    - VISIBILITY IN MILES
HX     - HEAT INDEX IN FAHRENHEIT
WCI    - WIND CHILL INDEX IN FAHRENHEIT
TC     - TEMPERATURE IN CELSIUS WHICH IS ALSO KNOWN AS
         TEMPERATURE IN CENTIGRADE
AFB    - AIR FORCE BASE
         LUKE AFB IS LUKE AIR FORCE BASE
         DAVIS-MONTHAN IS DAVIS-MONTHAN AIR FORCE BASE
NAS    - NAVAL AIR STATION
         EL CENTRO NAS IS EL CENTRO NAVAL AIR STATION
N/A    - NOT AVAILABLE



USA.gov is the U.S. government's official web portal to all federal, state and local government web resources and services.